GAOFEN 1-04 (43262 NORAD) Tracking and Keplerian Element Data

This shows tracking and keplerian element data for the satellite.

Feedback or suggestion? Click here.




ElementValue
Catalog43262
NameGAOFEN 1-04
Epoch Orbit6187
Epoch Day144.51673812
Epoch Year2019
RAAN222.3523
Inclination97.9968
Eccentricity0.0004946
Argument of Perigee34.632
Mean Anonmoly325.5214
Mean Motion14.76434592
Decay Rate4.3E-07
L11 43262U 18031D 19144.51673812 .00000043 00000-0 13531-4 0 9996
L22 43262 97.9968 222.3523 0004946 34.6320 325.5214 14.76434592 61876

Live tracking and technical data element details for GAOFEN 1-04 (NORAD 43262). GAOFEN 1-04 can be tracked NOW for your location showing map with azimuth and elevation plus other details from your city location.

Track the satellite on the map from your city or location and see movement details for azimuth, elevation, latitude, longitude, range, height, and movement on the map or in text.







IsCatalogInMostPopularTable: catalog: 43262, numindb: 134
Update: records affected: 1



GetName: 43262 GAOFEN 1-04

Hit Count: updated at: Fri, 24 May 2019 20:51:39 GMT